Wind_Speed
3 3 2 2 3 3 3 3 4 4 5 6 6 7 9 10 10 11 11 12 12 13 13 13 13 14 14 15 15 16 16 16 17 17 17 17 17 18
4 4 4 3 4 4 4 4 5 5 6 6 6 8 9 10 11 12 12 13 13 13 14 14 14 15 15 16 17 17 18 18 18 18 18 19 20 20
5 5 5 6 6 5 5 6 6 8 8 8 8 9 10 11 13 13 13 13 14 14 15 15 16 16 17 18 18 18 19 19 19 20 20 21 22 23
7 7 7 6 6 6 7 7 8 9 10 9 9 10 11 12 14 15 15 15 16 16 17 17 17 18 19 19 20 20 21 21 22 23 23 24 25 25
8 8 8 7 7 8 9 9 10 10 10 10 12 13 13 14 15 16 17 17 18 18 19 19 20 20 21 22 22 23 23 24 25 26 27 28 28 29
9 9 9 8 9 10 11 11 12 12 12 13 14 14 15 16 17 18 18 19 19 20 22 22 22 23 24 25 26 27 27 28 29 29 30 31 32 32
11 10 11 11 11 12 12 13 14 14 15 15 16 17 17 18 18 19 20 21 22 22 23 24 25 26 27 28 29 30 31 32 32 33 33 34 35 35
12 12 13 13 14 14 15 15 16 16 17 18 18 19 20 20 20 21 22 23 24 25 26 27 29 30 31 32 33 33 34 34 35 36 36 37 37 38
14 14 15 15 15 16 17 17 18 18 19 20 20 21 22 23 23 25 26 27 28 29 30 31 32 32 33 33 34 35 36 37 37 38 39 39 39 39
17 17 17 18 18 19 19 19 20 20 21 22 23 24 25 26 27 28 29 30 31 32 32 33 34 35 35 36 37 37 38 39 40 40 41 40 41 41
18 19 19 20 21 21 21 22 22 23 24 24 25 27 28 29 30 31 32 32 33 34 35 36 36 37 37 38 39 40 41 42 42 42 42 42 42 43
20 21 21 22 23 23 23 24 25 25 26 27 28 30 30 31 32 33 33 34 35 36 37 38 38 38 38 39 41 42 43 43 44 44 45 45 45 45
22 23 24 24 25 25 26 26 27 28 28 29 30 31 32 33 34 35 36 37 38 38 39 39 40 40 41 41 41 43 44 44 45 46 47 47 48 47
24 24 25 25 26 27 27 28 29 30 31 32 33 34 35 36 37 38 39 39 39 40 40 41 41 42 42 42 43 43 44 45 46 47 48 49 50 50
25 26 26 27 28 29 30 30 32 33 34 35 36 36 37 39 40 41 41 41 41 42 43 43 43 44 45 45 45 46 46 46 48 48 49 49 51 52
27 28 29 29 30 31 32 33 34 35 36 37 37 38 39 40 41 42 42 43 43 44 45 46 46 46 46 47 47 48 48 49 49 50 51 51 52 53
29 30 31 32 32 33 35 36 37 38 39 39 40 41 41 42 43 43 44 45 45 45 46 47 48 48 48 48 49 49 51 51 52 52 52 53 54 55
31 32 33 34 35 36 37 38 39 40 41 42 42 43 43 44 44 45 45 46 46 47 47 48 49 50 50 51 52 52 52 52 52 54 55 55 54 55
33 34 35 35 36 37 38 39 40 41 43 44 44 45 45 45 46 46 47 47 48 48 49 50 51 52 52 52 53 54 54 54 55 55 55 56 56 55
34 35 36 37 38 39 40 41 42 43 44 45 45 46 47 48 48 49 49 50 51 51 52 53 54 54 55 55 54 55 56 57 57 57 57 57 56 56
37 37 38 39 40 42 43 44 45 46 46 47 47 48 49 50 50 51 52 52 53 54 54 55 55 56 57 57 56 55 56 57 57 58 58 58 57 56
39 40 40 42 43 44 45 46 48 49 49 49 50 51 52 52 53 53 55 55 56 56 56 56 57 57 57 57 57 57 56 57 57 57 57 57 56 55
41 42 43 45 46 47 49 50 51 51 52 53 54 54 54 55 56 57 57 57 57 57 57 57 57 57 57 58 58 57 57 56 56 55 55 55 55 54
Wind_Direction
13 3 356 334 325 317 294 284 275 269 262 264 267 266 262 261 262 263 265 266 266 266 268 269 268 269 270 270 272 274 276 276 277 278 278 277 276 276
347 339 330 321 318 315 301 293 283 277 276 275 278 275 269 264 266 267 267 268 268 269 270 271 273 272 272 272 274 275 277 278 279 279 279 279 279 279
320 315 306 299 297 293 288 287 284 285 286 288 288 285 280 273 271 271 273 272 272 273 273 274 275 276 275 274 276 277 278 279 279 279 280 279 279 279
310 306 301 296 291 286 286 287 285 285 290 290 288 289 286 280 277 275 276 278 278 276 276 277 278 278 277 276 278 278 278 279 279 280 280 280 280 281
308 306 301 294 289 288 287 287 285 289 291 288 287 290 288 284 282 279 278 279 280 278 278 279 280 280 279 278 278 278 278 278 279 280 280 281 281 281
299 300 298 296 293 291 288 286 286 288 289 288 289 292 290 287 284 283 281 281 282 281 281 281 282 282 281 281 280 280 280 280 280 280 281 281 281 281
291 290 292 294 293 291 290 288 288 288 289 288 288 290 291 291 288 284 282 282 283 284 283 283 283 284 284 283 282 282 282 282 281 282 282 282 281 282
289 288 289 289 290 291 292 291 291 290 288 289 289 289 289 290 289 287 284 284 283 283 283 283 283 284 284 284 284 284 284 284 283 283 283 283 283 284
286 286 287 289 291 292 292 293 294 292 290 291 291 292 291 290 289 288 286 285 285 284 283 283 283 284 284 285 284 284 284 284 285 284 284 284 285 285
284 285 285 285 287 290 291 290 291 292 292 292 292 292 292 292 292 290 289 287 287 286 285 285 284 285 284 284 284 284 284 284 284 284 284 285 286 286
283 284 285 287 287 287 288 290 291 292 293 293 293 294 293 293 292 291 290 289 288 288 288 287 286 286 286 286 285 285 285 284 284 283 284 285 285 286
283 284 285 286 288 288 288 289 290 291 293 294 294 295 295 294 293 293 292 292 290 289 289 288 288 287 287 287 286 286 285 285 285 284 284 285 285 286
284 285 286 287 288 288 289 289 291 292 293 294 294 295 294 293 293 293 293 293 293 292 290 289 288 288 288 288 287 286 286 285 285 285 285 285 286 286
284 285 287 288 289 289 290 290 291 293 293 294 294 293 293 293 293 293 293 293 293 293 292 291 289 289 289 289 289 289 288 287 286 286 286 286 286 286
284 285 287 288 289 289 290 292 293 294 294 294 294 293 293 293 293 293 294 293 293 292 292 292 291 290 291 291 291 290 289 288 287 288 287 287 286 286
284 285 286 287 288 289 291 293 294 294 295 295 295 294 295 295 295 294 294 293 293 292 292 292 292 292 291 291 291 291 290 289 289 288 288 288 288 288
284 285 285 286 288 290 291 292 293 294 295 295 295 295 295 295 295 295 294 293 293 293 293 293 293 292 292 292 291 291 291 291 291 290 289 289 289 289
285 285 286 286 288 290 291 292 293 294 295 296 295 295 295 295 295 294 294 294 294 293 293 293 293 293 293 292 292 292 292 292 292 291 290 290 290 289
286 286 287 287 289 290 291 293 294 295 296 296 296 295 295 295 295 295 294 294 294 294 293 293 294 294 293 293 293 293 293 292 292 292 292 291 291 290
287 287 288 289 290 291 291 292 294 295 296 296 295 295 295 295 295 295 294 294 294 294 294 294 294 294 293 293 293 293 293 292 292 292 292 292 292 291
288 289 289 290 291 292 293 294 294 295 295 295 295 295 295 295 295 295 295 295 295 295 295 294 293 293 293 293 293 293 293 292 292 292 292 292 291 291
288 289 290 292 293 293 294 295 296 296 296 295 295 294 294 295 295 295 295 295 295 295 294 294 293 293 293 293 293 292 292 292 292 292 292 293 293 292
289 290 291 292 293 294 294 295 296 296 296 295 295 295 295 295 295 295 295 294 294 294 294 293 293 293 293 292 293 293 293 292 291 291 291 292 292 292
Height
5872 5872 5871 5870 5870 5869 5868 5868 5868 5867 5867 5866 5865 5865 5864 5864 5864 5864 5864 5864 5864 5864 5863 5863 5862 5862 5861 5861 5860 5860 5859 5858 5857 5856 5855 5854 5853 5853
5872 5872 5871 5870 5869 5868 5867 5867 5866 5866 5865 5865 5863 5862 5861 5861 5861 5861 5861 5860 5860 5860 5859 5859 5858 5857 5857 5856 5856 5855 5854 5853 5852 5851 5850 5849 5849 5848
5872 5870 5870 5869 5868 5867 5866 5866 5865 5864 5863 5863 5861 5860 5859 5858 5858 5858 5857 5857 5856 5856 5855 5855 5854 5853 5852 5852 5851 5850 5849 5848 5847 5846 5845 5844 5843 5842
5870 5869 5868 5867 5866 5866 5865 5864 5863 5862 5861 5860 5859 5857 5856 5855 5854 5854 5853 5853 5853 5852 5851 5850 5849 5848 5848 5847 5846 5845 5844 5843 5841 5840 5839 5838 5836 5835
5869 5868 5866 5865 5865 5864 5863 5862 5861 5860 5859 5857 5856 5854 5853 5852 5851 5850 5849 5849 5848 5847 5846 5845 5844 5843 5842 5841 5840 5839 5837 5836 5835 5833 5832 5830 5829 5827
5867 5865 5864 5863 5863 5862 5861 5859 5858 5857 5856 5854 5853 5851 5849 5848 5846 5845 5844 5844 5843 5842 5841 5840 5838 5837 5836 5834 5833 5832 5830 5829 5827 5825 5824 5822 5820 5818
5864 5863 5862 5861 5860 5859 5858 5857 5855 5854 5852 5850 5849 5847 5845 5843 5841 5840 5839 5839 5837 5836 5835 5833 5832 5830 5828 5827 5825 5823 5822 5820 5818 5817 5815 5813 5811 5808
5861 5860 5859 5858 5857 5855 5854 5853 5851 5849 5848 5846 5844 5842 5840 5839 5837 5835 5834 5833 5831 5830 5828 5826 5824 5822 5820 5818 5816 5814 5812 5811 5809 5807 5805 5802 5800 5797
5858 5856 5855 5854 5853 5851 5850 5848 5846 5845 5843 5841 5839 5837 5835 5833 5832 5830 5827 5826 5824 5822 5820 5818 5816 5813 5811 5808 5806 5804 5802 5800 5798 5796 5794 5791 5788 5785
5853 5852 5851 5850 5848 5847 5845 5843 5841 5839 5837 5835 5833 5831 5829 5826 5824 5822 5820 5817 5815 5812 5810 5808 5806 5803 5801 5798 5795 5793 5791 5789 5786 5784 5782 5779 5776 5773
5848 5847 5845 5844 5843 5841 5840 5838 5836 5833 5831 5829 5826 5824 5821 5819 5816 5814 5811 5809 5806 5803 5800 5797 5795 5792 5790 5787 5784 5781 5779 5776 5774 5771 5769 5766 5763 5760
5843 5842 5840 5838 5837 5835 5833 5831 5829 5827 5825 5822 5819 5816 5813 5810 5807 5804 5801 5798 5796 5793 5789 5786 5783 5780 5779 5776 5772 5769 5766 5763 5760 5758 5755 5752 5750 5747
5837 5836 5834 5832 5830 5828 5826 5824 5822 5820 5817 5814 5811 5808 5805 5801 5798 5794 5791 5788 5784 5781 5778 5774 5771 5768 5765 5763 5760 5756 5753 5749 5746 5743 5741 5738 5735 5733
5831 5829 5827 5825 5823 5821 5819 5817 5814 5812 5809 5806 5803 5799 5796 5792 5788 5784 5781 5777 5773 5769 5765 5762 5759 5756 5753 5750 5747 5743 5739 5735 5732 5729 5726 5723 5720 5718
5824 5822 5820 5818 5816 5814 5811 5809 5806 5803 5800 5797 5794 5790 5786 5782 5778 5774 5770 5766 5762 5757 5753 5750 5746 5743 5739 5736 5733 5729 5725 5722 5717 5714 5711 5708 5705 5702
5817 5815 5813 5810 5808 5805 5803 5800 5797 5794 5790 5787 5783 5780 5776 5771 5767 5763 5759 5754 5750 5746 5740 5736 5732 5729 5726 5722 5718 5715 5710 5707 5703 5699 5696 5693 5689 5685
5809 5807 5804 5802 5799 5797 5794 5790 5787 5784 5780 5776 5772 5768 5764 5760 5755 5751 5746 5742 5738 5734 5729 5724 5719 5715 5711 5708 5704 5700 5696 5692 5687 5683 5680 5677 5673 5668
5800 5798 5795 5793 5790 5787 5784 5780 5777 5773 5769 5765 5761 5756 5752 5748 5743 5738 5734 5729 5725 5721 5716 5711 5706 5702 5698 5694 5689 5685 5681 5676 5672 5667 5663 5660 5657 5652
5791 5788 5786 5783 5780 5777 5773 5770 5766 5762 5757 5753 5748 5744 5739 5735 5730 5726 5721 5716 5712 5707 5703 5697 5692 5687 5684 5680 5676 5669 5664 5660 5655 5651 5646 5642 5639 5636
5781 5778 5775 5772 5769 5766 5762 5758 5754 5750 5745 5741 5736 5731 5726 5722 5717 5712 5707 5702 5698 5693 5689 5683 5677 5671 5667 5664 5660 5656 5648 5642 5638 5634 5630 5625 5622 5618
5771 5768 5765 5761 5758 5754 5750 5746 5742 5737 5732 5728 5723 5718 5713 5708 5703 5698 5693 5688 5683 5678 5673 5668 5662 5656 5650 5646 5643 5639 5633 5626 5620 5615 5611 5608 5604 5601
5760 5756 5753 5750 5746 5742 5737 5733 5728 5723 5718 5714 5709 5704 5698 5693 5688 5683 5678 5672 5667 5662 5657 5652 5645 5639 5634 5629 5625 5621 5617 5611 5604 5598 5593 5589 5584 5582
5748 5744 5741 5737 5733 5728 5724 5719 5714 5709 5704 5699 5694 5688 5683 5678 5672 5667 5661 5655 5650 5645 5639 5634 5629 5623 5617 5611 5607 5603 5599 5594 5588 5584 5579 5572 5568 5564